KC9VAF Weather Reports


Display with metric or nautical units.
time (UTC)temp
F
wind
direction
speed
MPH
gust
MPH
rain 1hr
in
rain 24hr
in
rain mn
in
humidity
%
barometer
mb
20260507010156 48 68 3.0 5.0 0.00 0.00 0.00 47 1014.8
20260507005654 48 291 3.0 3.0 0.00 0.00 0.00 49 1014.6
20260507005155 49 283 1.0 2.0 0.00 0.00 0.00 47 1014.6
20260507004652 49 32 2.0 2.0 0.00 0.00 0.00 47 1014.5
20260507004149 49 25 2.0 2.0 0.00 0.00 0.00 47 1014.3
20260507003646 50 202 1.0 1.0 0.00 0.00 0.00 47 1014.5
20260507003146 50 307 3.0 3.0 0.00 0.00 0.00 47 1014.5
20260507002643 50 159 3.0 3.0 0.00 0.00 0.00 46 1014.5
20260507002138 50 293 3.0 6.0 0.00 0.00 0.00 46 1014.1
20260507001635 50 321 4.0 7.0 0.00 0.00 0.00 45 1014.4
20260507001133 50 262 6.0 6.0 0.00 0.00 0.00 45 1014.3
20260507000629 50 286 5.0 7.0 0.00 0.00 0.00 44 1014.1
20260507000124 50 304 2.0 2.0 0.00 0.00 0.00 45 1014.1
20260506235622 50 309 3.0 5.0 0.00 0.00 0.00 43 1014.3
20260506235122 51 274 3.0 3.0 0.00 0.00 0.00 44 1014.2
20260506234620 51 97 4.0 5.0 0.00 0.00 0.00 43 1014.1
20260506234117 51 8 3.0 3.0 0.00 0.00 0.00 43 1013.9
20260506233614 51 248 2.0 3.0 0.00 0.00 0.00 44 1014.2
20260506233111 51 29 3.0 6.0 0.00 0.00 0.00 44 1014.1
20260506232607 51 298 3.0 5.0 0.00 0.00 0.00 44 1014.0
20260506232102 51 304 3.0 5.0 0.00 0.00 0.00 43 1014.0
20260506231600 51 316 3.0 6.0 0.00 0.00 0.00 42 1014.0
20260506231058 51 111 1.0 2.0 0.00 0.00 0.00 43 1014.2
20260506230554 51 283 7.0 8.0 0.00 0.00 0.00 42 1013.9
20260506230051 51 62 1.0 1.0 0.00 0.00 0.00 43 1014.1
20260506225548 51 155 2.0 2.0 0.00 0.00 0.00 43 1013.9
20260506225044 51 321 5.0 7.0 0.00 0.00 0.00 42 1014.0
20260506224541 52 287 3.0 3.0 0.00 0.00 0.00 43 1013.9
20260506224038 52 102 2.0 3.0 0.00 0.00 0.00 43 1013.9
20260506223534 52 310 4.0 5.0 0.00 0.00 0.00 42 1013.8
20260506223030 52 297 4.0 7.0 0.00 0.00 0.00 41 1013.7
20260506222527 52 141 2.0 2.0 0.00 0.00 0.00 43 1013.7
20260506222024 52 249 3.0 5.0 0.00 0.00 0.00 42 1013.8
20260506221521 52 305 2.0 3.0 0.00 0.00 0.00 42 1013.6
20260506221019 52 315 2.0 3.0 0.00 0.00 0.00 43 1013.6
20260506220514 52 29 4.0 5.0 0.00 0.00 0.00 42 1013.8
20260506220010 52 299 3.0 3.0 0.00 0.00 0.00 43 1013.3
20260506215508 53 139 1.0 2.0 0.00 0.00 0.00 43 1013.7
20260506215004 52 216 4.0 7.0 0.00 0.00 0.00 43 1013.4
20260506214501 52 83 1.0 1.0 0.00 0.00 0.00 43 1013.7
20260506213958 53 258 3.0 3.0 0.00 0.00 0.00 41 1013.7
20260506213456 53 293 4.0 6.0 0.00 0.00 0.00 42 1013.4
20260506212952 53 286 3.0 6.0 0.00 0.00 0.00 43 1013.5
20260506212448 53 119 2.0 2.0 0.00 0.00 0.00 42 1013.5
20260506211943 53 357 1.0 1.0 0.00 0.00 0.00 42 1013.5
20260506211439 53 286 5.0 6.0 0.00 0.00 0.00 40 1013.6
20260506210937 53 2 3.0 3.0 0.00 0.00 0.00 40 1013.5
20260506210433 53 211 4.0 6.0 0.00 0.00 0.00 41 1013.6
20260506205931 53 216 5.0 6.0 0.00 0.00 0.00 41 1013.7
20260506205426 54 296 4.0 8.0 0.00 0.00 0.00 40 1013.4
20260506204923 55 67 2.0 3.0 0.00 0.00 0.00 39 1013.5
20260506204421 54 270 3.0 5.0 0.00 0.00 0.00 40 1013.7
20260506203918 54 176 3.0 5.0 0.00 0.00 0.00 41 1013.8
20260506203415 53 355 2.0 3.0 0.00 0.00 0.00 42 1013.7
20260506202912 54 69 5.0 7.0 0.00 0.00 0.00 40 1013.6
20260506202409 54 170 3.0 3.0 0.00 0.00 0.00 40 1013.7
20260506201905 54 244 3.0 3.0 0.00 0.00 0.00 40 1013.8
20260506201403 54 305 4.0 6.0 0.00 0.00 0.00 40 1013.8
20260506200859 54 93 1.0 1.0 0.00 0.00 0.00 40 1013.9
20260506200356 54 128 0.0 1.0 0.00 0.00 0.00 40 1014.0
20260506195852 54 323 5.0 7.0 0.00 0.00 0.00 40 1013.7
20260506195349 54 277 5.0 6.0 0.00 0.00 0.00 41 1013.8
20260506194846 54 354 5.0 7.0 0.00 0.00 0.00 40 1013.9
20260506194343 55 284 4.0 5.0 0.00 0.00 0.00 39 1013.7
20260506193840 55 230 3.0 3.0 0.00 0.00 0.00 39 1013.7
20260506193337 55 298 8.0 9.0 0.00 0.00 0.00 39 1013.8
20260506192833 55 101 6.0 9.0 0.00 0.00 0.00 39 1013.7
20260506192330 54 23 2.0 2.0 0.00 0.00 0.00 42 1013.9
20260506191827 53 48 3.0 6.0 0.00 0.00 0.00 41 1013.8
20260506191323 54 122 2.0 2.0 0.00 0.00 0.00 41 1013.9
20260506190821 54 238 1.0 2.0 0.00 0.00 0.00 42 1013.7
20260506190317 54 128 3.0 3.0 0.00 0.00 0.00 41 1013.8
20260506185814 54 298 3.0 3.0 0.00 0.00 0.00 42 1014.0
20260506185311 53 252 3.0 3.0 0.00 0.00 0.00 42 1014.0
20260506184808 53 309 6.0 7.0 0.00 0.00 0.00 42 1013.9
20260506184305 53 33 2.0 3.0 0.00 0.00 0.00 41 1013.9
20260506183802 54 309 4.0 6.0 0.00 0.00 0.00 41 1013.7
20260506183257 54 280 3.0 3.0 0.00 0.00 0.00 42 1013.9
20260506182755 54 211 4.0 6.0 0.00 0.00 0.00 40 1013.8
20260506182252 55 74 1.0 1.0 0.00 0.00 0.00 42 1013.9
20260506181749 55 346 2.0 2.0 0.00 0.00 0.00 39 1013.6
20260506181247 55 161 2.0 3.0 0.00 0.00 0.00 41 1013.8
20260506180744 53 315 2.0 2.0 0.00 0.00 0.00 42 1013.8
20260506180240 53 35 2.0 2.0 0.00 0.00 0.00 41 1013.7
20260506175736 55 295 3.0 5.0 0.00 0.00 0.00 43 1013.8
20260506175233 53 222 3.0 3.0 0.00 0.00 0.00 42 1014.0
20260506174731 53 339 3.0 5.0 0.00 0.00 0.00 41 1013.8
20260506174227 53 318 7.0 8.0 0.00 0.00 0.00 40 1014.1
20260506173725 53 321 4.0 6.0 0.00 0.00 0.00 42 1014.2
20260506173222 54 96 3.0 5.0 0.00 0.00 0.00 41 1014.0
20260506172719 54 305 2.0 2.0 0.00 0.00 0.00 43 1014.1
20260506172215 53 204 1.0 2.0 0.00 0.00 0.00 43 1014.2
20260506171713 53 4 3.0 5.0 0.00 0.00 0.00 43 1014.1
20260506171210 53 226 4.0 7.0 0.00 0.00 0.00 43 1014.2
20260506170708 53 330 5.0 6.0 0.00 0.00 0.00 43 1014.5
20260506170204 53 101 3.0 3.0 0.00 0.00 0.00 43 1014.3
20260506165703 52 152 2.0 2.0 0.00 0.00 0.00 45 1014.3
20260506165159 53 229 5.0 6.0 0.00 0.00 0.00 43 1014.4
20260506164656 54 65 2.0 2.0 0.00 0.00 0.00 43 1014.5
20260506164154 52 358 4.0 5.0 0.00 0.00 0.00 43 1014.3
20260506163650 52 95 2.0 2.0 0.00 0.00 0.00 43 1014.3
20260506163145 52 348 3.0 3.0 0.00 0.00 0.00 44 1014.5
20260506162641 52 275 2.0 3.0 0.00 0.00 0.00 41 1014.1
20260506162139 51 28 1.0 2.0 0.00 0.00 0.00 44 1014.1
20260506161636 52 343 3.0 5.0 0.00 0.00 0.00 43 1014.1
20260506161133 53 250 5.0 7.0 0.00 0.00 0.00 41 1014.2
20260506160630 53 61 0.0 1.0 0.00 0.00 0.00 42 1014.5
20260506160127 52 305 3.0 3.0 0.00 0.00 0.00 41 1014.3
20260506155626 52 233 3.0 3.0 0.00 0.00 0.00 42 1014.1
20260506155122 51 64 2.0 3.0 0.00 0.00 0.00 44 1014.2
20260506153219 51 279 3.0 3.0 0.00 0.00 0.00 44 1013.9
20260506152715 51 288 3.0 3.0 0.00 0.00 0.00 43 1014.1
20260506152213 52 109 2.0 3.0 0.00 0.00 0.00 44 1014.1
20260506151712 52 179 4.0 5.0 0.00 0.00 0.00 42 1014.2
20260506151208 51 173 4.0 6.0 0.00 0.00 0.00 42 1014.3
20260506150704 53 227 4.0 8.0 0.00 0.00 0.00 43 1014.0
20260506150202 54 277 3.0 3.0 0.00 0.00 0.00 42 1014.2
20260506145659 54 178 3.0 3.0 0.00 0.00 0.00 42 1014.2
20260506145155 53 133 1.0 2.0 0.00 0.00 0.00 44 1014.3
20260506144653 52 268 3.0 5.0 0.00 0.00 0.00 44 1014.3
20260506144149 52 293 2.0 2.0 0.00 0.00 0.00 46 1014.3
20260506143647 52 11 5.0 6.0 0.00 0.00 0.00 44 1014.2
20260506143145 52 329 5.0 6.0 0.00 0.00 0.00 46 1014.3
20260506142643 52 139 4.0 7.0 0.00 0.00 0.00 44 1014.4
20260506142141 51 281 2.0 6.0 0.00 0.00 0.00 45 1014.3
20260506141638 50 357 3.0 5.0 0.00 0.00 0.00 46 1014.4
20260506141136 50 327 8.0 11.0 0.00 0.00 0.00 43 1014.1
20260506140633 51 29 1.0 1.0 0.00 0.00 0.00 45 1014.4
20260506140131 51 114 0.0 1.0 0.00 0.00 0.00 47 1014.1
20260506135628 51 344 2.0 2.0 0.00 0.00 0.00 46 1014.5
20260506135124 50 23 1.0 1.0 0.00 0.00 0.00 47 1014.1
20260506134621 50 290 3.0 3.0 0.00 0.00 0.00 45 1014.2
20260506134116 50 16 2.0 2.0 0.00 0.00 0.00 45 1014.3
20260506133614 49 324 2.0 2.0 0.00 0.00 0.00 46 1014.2
20260506133111 49 129 1.0 1.0 0.00 0.00 0.00 48 1014.2
20260506132608 48 140 4.0 7.0 0.00 0.00 0.00 47 1014.2
20260506132105 48 54 2.0 2.0 0.00 0.00 0.00 50 1014.1
20260506131602 48 259 2.0 3.0 0.00 0.00 0.00 52 1014.0
20260506131058 47 75 0.0 1.0 0.00 0.00 0.00 53 1013.9
20260506130555 47 309 3.0 3.0 0.00 0.00 0.00 54 1013.9
20260506130053 46 140 1.0 2.0 0.00 0.00 0.00 55 1013.9
20260506125551 46 65 0.0 1.0 0.00 0.00 0.00 57 1014.1
20260506125048 45 106 1.0 1.0 0.00 0.00 0.00 59 1013.8
20260506124546 44 309 3.0 3.0 0.00 0.00 0.00 59 1013.9
20260506124044 44 52 1.0 1.0 0.00 0.00 0.00 61 1013.6
20260506123541 44 2 1.0 2.0 0.00 0.00 0.00 63 1013.7
20260506123040 43 334 2.0 2.0 0.00 0.00 0.00 63 1013.8
20260506122535 42 81 0.0 1.0 0.00 0.00 0.00 65 1013.7
20260506122034 42 58 1.0 1.0 0.00 0.00 0.00 66 1013.7
20260506121531 41 82 0.0 0.0 0.00 0.00 0.00 68 1013.5
20260506121027 40 87 0.0 1.0 0.00 0.00 0.00 70 1013.6
20260506120525 40 80 0.0 0.0 0.00 0.00 0.00 72 1013.7
20260506120022 39 88 0.0 0.0 0.00 0.00 0.00 73 1013.5
20260506115520 38 84 0.0 0.0 0.00 0.00 0.00 77 1013.5
20260506115019 38 86 0.0 0.0 0.00 0.00 0.00 77 1013.6
20260506114515 37 84 0.0 0.0 0.00 0.00 0.00 78 1013.4
20260506114014 37 87 0.0 0.0 0.00 0.00 0.00 78 1013.2
20260506113511 36 86 0.0 0.0 0.00 0.00 0.00 79 1013.3
20260506113009 36 86 0.0 0.0 0.00 0.00 0.00 79 1013.2
20260506112505 36 96 0.0 1.0 0.00 0.00 0.00 79 1013.2
20260506112003 35 86 0.0 0.0 0.00 0.00 0.00 82 1013.2
20260506111501 34 86 0.0 0.0 0.00 0.00 0.00 82 1013.2
20260506110957 34 86 0.0 0.0 0.00 0.00 0.00 83 1013.2
20260506110455 33 86 0.0 0.0 0.00 0.00 0.00 82 1013.3
20260506105951 34 86 0.0 0.0 0.00 0.00 0.00 81 1012.7
20260506105448 34 86 0.0 0.0 0.00 0.00 0.00 80 1012.7
20260506104945 34 115 0.0 0.0 0.00 0.00 0.00 81 1012.7
20260506104443 33 83 0.0 0.0 0.00 0.00 0.00 83 1012.8
20260506103941 33 83 0.0 0.0 0.00 0.00 0.00 82 1012.8
20260506103438 33 83 0.0 0.0 0.00 0.00 0.00 82 1012.9
20260506102935 33 83 0.0 0.0 0.00 0.00 0.00 81 1012.8
20260506102433 34 83 0.0 0.0 0.00 0.00 0.00 81 1012.7
20260506101930 34 82 0.0 0.0 0.00 0.00 0.00 82 1012.5
20260506101426 33 81 0.0 0.0 0.00 0.00 0.00 82 1012.5
20260506100924 33 82 0.0 0.0 0.00 0.00 0.00 82 1012.7
20260506100422 34 81 0.0 0.0 0.00 0.00 0.00 81 1012.7
20260506095920 33 82 0.0 0.0 0.00 0.00 0.00 81 1012.7
20260506095418 34 82 0.0 0.0 0.00 0.00 0.00 80 1012.6
20260506094914 34 82 0.0 0.0 0.00 0.00 0.00 80 1012.7
20260506094413 34 79 0.0 0.0 0.00 0.00 0.00 81 1012.7
20260506093910 34 81 0.0 0.0 0.00 0.00 0.00 82 1012.7
20260506093407 33 81 0.0 0.0 0.00 0.00 0.00 81 1012.9
20260506092905 34 81 0.0 0.0 0.00 0.00 0.00 80 1012.9
20260506092403 34 75 0.0 0.0 0.00 0.00 0.00 80 1012.6
20260506091859 34 86 0.0 0.0 0.00 0.00 0.00 79 1012.9
20260506091357 35 86 0.0 0.0 0.00 0.00 0.00 79 1012.9
20260506090854 35 88 0.0 0.0 0.00 0.00 0.00 79 1013.0
20260506090352 35 86 0.0 0.0 0.00 0.00 0.00 79 1012.6
20260506085848 34 86 0.0 0.0 0.00 0.00 0.00 80 1012.9
20260506085345 34 84 0.0 0.0 0.00 0.00 0.00 81 1012.8
20260506084841 34 82 0.0 0.0 0.00 0.00 0.00 83 1012.7
20260506084338 33 82 0.0 0.0 0.00 0.00 0.00 84 1012.6
20260506083835 33 82 0.0 0.0 0.00 0.00 0.00 82 1012.7
20260506083332 34 82 0.0 0.0 0.00 0.00 0.00 82 1012.5
20260506082829 35 82 0.0 0.0 0.00 0.00 0.00 82 1012.5
20260506082326 35 79 0.0 0.0 0.00 0.00 0.00 81 1012.4
20260506081822 35 79 0.0 0.0 0.00 0.00 0.00 79 1012.5
20260506081320 35 79 0.0 0.0 0.00 0.00 0.00 75 1012.4
20260506080818 36 79 0.0 0.0 0.00 0.00 0.00 74 1012.3
20260506080314 36 82 0.0 0.0 0.00 0.00 0.00 73 1012.3
20260506073258 37 81 0.0 0.0 0.00 0.00 0.00 70 1012.0
20260506072755 37 76 0.0 0.0 0.00 0.00 0.00 69 1012.2
20260506072252 38 81 0.0 0.0 0.00 0.00 0.00 67 1012.1
20260506071750 38 75 0.0 0.0 0.00 0.00 0.00 67 1012.3
20260506071248 38 81 0.0 0.0 0.00 0.00 0.00 67 1012.4
20260506070744 39 82 0.0 0.0 0.00 0.00 0.00 65 1012.3
20260506070243 38 82 0.0 0.0 0.00 0.00 0.00 65 1012.2
20260506062218 42 83 0.0 1.0 0.00 0.00 0.00 57 1012.4
20260506061714 42 82 0.0 0.0 0.00 0.00 0.00 57 1012.4
20260506061212 43 81 0.0 0.0 0.00 0.00 0.00 55 1012.3
20260506060711 43 78 0.0 0.0 0.00 0.00 0.00 54 1012.0
20260506060207 43 78 0.0 0.0 0.00 0.00 0.00 54 1012.3
20260506051139 42 78 0.0 0.0 0.00 0.00 0.00 56 1012.5
20260506050638 42 81 0.0 0.0 0.00 0.00 0.00 55 1012.6
20260506050134 42 79 0.0 0.0 0.00 0.00 0.00 53 1012.7
20260506045127 43 79 0.0 0.0 0.00 0.00 0.00 52 1012.5
20260506044625 44 82 0.0 0.0 0.00 0.00 0.00 51 1012.3
20260506044122 44 79 0.0 0.0 0.00 0.00 0.00 50 1012.5
20260506043619 44 96 1.0 2.0 0.00 0.00 0.00 49 1012.2
20260506043117 45 51 1.0 1.0 0.00 0.00 0.00 49 1012.3
20260506042616 45 73 0.0 0.0 0.00 0.00 0.00 47 1012.5
20260506042114 46 76 0.0 0.0 0.00 0.00 0.00 46 1012.4
20260506041612 46 72 1.0 1.0 0.00 0.00 0.00 46 1012.2
20260506041108 46 72 1.0 1.0 0.00 0.00 0.00 44 1012.0
20260506040607 47 70 1.0 1.0 0.00 0.00 0.00 44 1011.9
20260506035600 47 72 0.0 0.0 0.00 0.00 0.00 44 1012.0
20260506035056 47 55 1.0 1.0 0.00 0.00 0.00 43 1011.9
20260506034554 47 16 5.0 6.0 0.00 0.00 0.00 43 1011.8
20260506034050 48 49 2.0 3.0 0.00 0.00 0.00 43 1011.9
20260506033548 48 35 1.0 2.0 0.00 0.00 0.00 43 1011.8
20260506033044 48 90 1.0 1.0 0.00 0.00 0.00 43 1012.1
20260506032542 48 7 3.0 3.0 0.00 0.00 0.00 43 1011.9
20260506032038 49 12 6.0 8.0 0.00 0.00 0.00 42 1011.8
20260506031536 49 56 2.0 3.0 0.00 0.00 0.00 42 1012.0
20260506031033 49 44 1.0 1.0 0.00 0.00 0.00 42 1011.8
20260506030531 49 51 2.0 2.0 0.00 0.00 0.00 42 1011.8
20260506030028 49 351 2.0 3.0 0.00 0.00 0.00 41 1011.7
20260506025525 50 70 1.0 1.0 0.00 0.00 0.00 41 1011.7
20260506025021 50 28 4.0 5.0 0.00 0.00 0.00 41 1011.7
20260506024518 50 67 2.0 2.0 0.00 0.00 0.00 41 1011.6
20260506024014 50 107 3.0 5.0 0.00 0.00 0.00 41 1011.5
20260506023510 50 15 1.0 2.0 0.00 0.00 0.00 40 1011.5
20260506023008 50 73 2.0 2.0 0.00 0.00 0.00 42 1011.3
20260506022506 50 83 1.0 1.0 0.00 0.00 0.00 41 1011.3
20260506022003 50 76 1.0 2.0 0.00 0.00 0.00 39 1011.1
20260506021500 50 12 2.0 2.0 0.00 0.00 0.00 41 1010.8
20260506020957 51 13 2.0 2.0 0.00 0.00 0.00 40 1010.7
20260506020455 51 87 2.0 2.0 0.00 0.00 0.00 40 1010.9
20260506015952 51 84 2.0 2.0 0.00 0.00 0.00 39 1010.8
20260506015449 51 68 0.0 1.0 0.00 0.00 0.00 39 1010.4
20260506014946 51 10 1.0 1.0 0.00 0.00 0.00 39 1010.7
20260506014443 51 33 2.0 2.0 0.00 0.00 0.00 38 1010.4
20260506013939 51 71 2.0 3.0 0.00 0.00 0.00 39 1010.5
20260506013438 52 69 0.0 1.0 0.00 0.00 0.00 38 1010.3
20260506012933 52 83 1.0 2.0 0.00 0.00 0.00 37 1010.1
20260506012430 52 79 1.0 1.0 0.00 0.00 0.00 37 1010.0
20260506011927 52 101 2.0 2.0 0.00 0.00 0.00 36 1010.1
20260506011425 52 10 3.0 5.0 0.00 0.00 0.00 36 1010.0
20260506010921 53 17 2.0 3.0 0.00 0.00 0.00 36 1010.0
20260506010420 53 330 4.0 6.0 0.00 0.00 0.00 37 1009.6